Regional Weather Roundup
Issued by NWS

Home | Current Version | Previous Version | Graphics & Text | Print | Product List | Glossary On
Versions: 1 2 3 4 5 6 7 8 9 10 11 12 13 14 15 16 17 18 19 20 21 22 23 24 25 26 27 28 29 30 31 32 33 34 35 36 37 38 39 40 41 42 43 44 45 46 47 48 49 50
000
ASUS45 KTFX 221010
RWRMT
MONTANA REGIONAL WEATHER ROUNDUP
NATIONAL WEATHER SERVICE GREAT FALLS MT
300 AM MST THU FEB 22 2018

NOTE: "FAIR" INDICATES FEW OR NO CLOUDS BELOW 12000 FEET WITH NO
SIGNIFICANT WEATHER AND/OR OBSTRUCTIONS TO VISIBILITY.

MTZ001>007-043-221100-
WEST OF THE DIVIDE

CITY           SKY/WX    TMP DP  RH WIND       PRES   REMARKS
KALISPELL      CLOUDY     4   1  88 CALM      30.10R
MISSOULA       CLOUDY    10   6  84 CALM      30.06S
BUTTE          MOCLDY    -5 -11  75 CALM      29.91F
MULLAN PASS    CLOUDY     6   3  87 VRB6      29.83F WCI  -4
ANACONDA         N/A      1  -4  78 CALM      29.96R
DEER LODGE       N/A      0  -8  71 CALM      29.99F
HAMILTON         N/A     10   7  85 MISG      30.03S
PLAINS           N/A      2 -11  54 CALM      30.12S
RONAN            N/A      1  -2  85 E3        30.10S
$$

MTZ008-052>055-221100-
SOUTHWEST MONTANA

CITY           SKY/WX    TMP DP  RH WIND       PRES   REMARKS
BOZEMAN        FAIR      -2  -8  76 S9        29.98F WCI -18
DILLON         CLOUDY     4   3  96 CALM      29.91F
ENNIS          CLOUDY    14   1  57 S10       29.95S WCI   1
W YELLOWSTONE  CLOUDY     3   0  85 CALM      29.91F FOG
THREE FORKS      N/A     -5 -12  71 CALM      29.99S
TWIN BRIDGES     N/A      9   0  67 CALM      29.93
$$

MTZ009-010-012-014-046-048-049-054-221100-
EAST SLOPES AND CENTRAL MONTANA

CITY           SKY/WX    TMP DP  RH WIND       PRES   REMARKS
CUT BANK       FAIR       0  -8  69 N6        30.04R WCI -12
GREAT FALLS    FAIR       3  -5  69 N7        30.04R WCI  -9
MALMSTROM AFB  FAIR      -5  -9  85 CALM      30.07R
HELENA         FAIR      -1  -4  87 CALM      30.04F
AUGUSTA        MOCLDY     4  -6  63 NE8       29.98R WCI -10
BOWMANS CRNR   MOCLDY     9   0  66 S6        29.97R WCI  -1
CHOTEAU          N/A      5  -8  56 N12       30.04S WCI -11
FAIRFIELD      MOCLDY     1  -8  66 NW5       30.02R
POWER          FAIR       4 -10  52 N6        30.02S WCI  -7
RAYNESFORD     FAIR       0  -6  76 E6        30.02R WCI -12
ULM            MOCLDY     6  -3  67 SE3       30.03S
WHITE SULPHUR    N/A     -6 -11  77 N5        29.96S
$$

MTZ011-013-016-021-045-047-050-051-221100-
NORTH CENTRAL MONTANA

CITY           SKY/WX    TMP DP  RH WIND       PRES   REMARKS
HAVRE          FAIR     -21 -25  81 W6        30.15R WCI -36
LEWISTOWN      FAIR      -2  -6  83 SE7       30.01S WCI -15
N BAR RANCH    FAIR       1  -8  66 NW5       30.02S
CHINOOK          N/A    -26 -33  68 CALM      30.18S
GEYSER         FAIR       3  -8  61 SW7       30.01S WCI -10
STANFORD       FAIR       7  -5  58 W3        29.99S
WINIFRED       FAIR       6  -6  60 NW6       30.03S WCI  -5
$$

MTZ017>020-022>027-061-062-221100-
NORTHEAST MONTANA

CITY           SKY/WX    TMP DP  RH WIND       PRES   REMARKS
GLASGOW        FAIR     -15 -20  78 SE5       30.15F
GLENDIVE       FAIR      -3 -11  68 SW3       30.18F
JORDAN           N/A    -24 -30  73 W7        30.12F WCI -42
MALTA          CLEAR    -26 -31  75 NE5       30.17R
SIDNEY         FAIR     -14 -18  82 CALM      30.23F
WOLF POINT     FAIR     -21 -26  77 CALM      30.21S
PLENTYWOOD       N/A     -4  -9  77 E6        30.17F WCI -16
POPLAR           N/A    -18 -24  76 N5        30.22S
SCOBEY           N/A    -17 -27  60 CALM      30.11F
$$

MTZ028>42-056>058-221100-
SOUTHCENTRAL AND SOUTHEAST MONTANA

CITY           SKY/WX    TMP DP  RH WIND       PRES   REMARKS
BAKER          FAIR     -14 -18  82 SE6       30.15F WCI -28
BILLINGS       FAIR       4  -4  69 SW12      30.06R WCI -12
LIVINGSTON     FAIR       3  -3  76 NE3       29.99R
MILES CITY     FAIR     -19 -23  81 NW5       30.16F
BIG TIMBER     CLOUDY     0  -6  78 CALM      30.04S
EKALAKA          N/A     17  -4  39 E3        30.06F
FORSYTH          N/A    -15 -18  84 CALM      30.14F
HARLOWTON      FAIR      -4 -10  75 NW8       30.01S WCI -19
LAUREL           N/A      5  -4  66 W8        30.08S WCI  -8
$$

REGIONAL REPORTS...DAKOTAS

CITY           SKY/WX    TMP DP  RH WIND       PRES   REMARKS
WILLISTON      FAIR      -8 -13  78 SW3       30.23F
MINOT          FAIR      -1  -8  72 S8        30.26F WCI -15
DICKINSON      FAIR      -5 -13  68 CALM      30.16F
BEACH          FAIR      -6 -13  71 S6        30.18F WCI -18
CROSBY         FAIR      -4 -11  71 SW14      30.20F WCI -24
TIOGA          FAIR      -6 -11  77 S5        30.21F
WATFORD CITY   FAIR     -13 -17  84 CALM      30.22S
BISMARCK       FAIR      -7 -11  83 E6        30.32F WCI -20
GRAND FORKS    FAIR      -3  -8  79 SE9       30.47F WCI -19
FARGO          FAIR       5  -1  76 SE10      30.47F WCI -10
BUFFALO SD       N/A    -15 -21  74 W7        30.07F WCI -31
RAPID CITY     FAIR       4  -2  76 E3        30.13F
$$

REGIONAL REPORTS...WYOMING/IDAHO/WASHINGTON

CITY           SKY/WX    TMP DP  RH WIND       PRES   REMARKS
GILLETTE       FAIR       9  -2  61 SE9       30.04F WCI  -4
SHERIDAN       FAIR     -13 -17  82 S3        30.06S
BUFFALO WY     FAIR      11  -6  46 NW7       30.00F WCI   0
CODY           FAIR       6  -2  69 W5        30.00F
YELLOWSTONE LA   N/A    -12 -17  78 NW3       29.91F
IDAHO FALLS    CLOUDY    12   6  77 N6        30.00F WCI   3
SALMON         CLOUDY    19  15  84 CALM      29.97F
BOISE          LGT SNOW  28  26  92 SE3       29.96F FOG
SPOKANE        CLOUDY    15  13  91 N6        30.09S WCI   6
$$

REGIONAL REPORTS...ALBERTA

CITY           SKY/WX    TMP DP  RH WIND       PRES   REMARKS
CALGARY        MOCLDY    12   1  62 NW8       30.06S WCI   1
FORT MCMURRAY  MOCLDY    12   7  79 W10       29.96R WCI  -1
HIGH LEVEL     CLEAR     23  10  58 NW8       30.05R WCI  14
LETHBRIDGE     CLEAR      5  -6  61 W7        30.09R WCI  -7
LLOYDMINSTER   CLEAR      0  -6  78 W16       30.00S WCI -21
MEDICINE HAT   CLEAR     -4 -11  71 SW12      30.14R WCI -22
PEACE RIVER    PTCLDY    12   7  79 NW9       30.12R WCI   0
PINCHER CREEK  PTCLDY     3  -4  72 W8        30.05R WCI -10
$$

REGIONAL REPORTS...SASKATCHEWAN

CITY           SKY/WX    TMP DP  RH WIND       PRES   REMARKS
ESTEVAN        PTCLDY   -17 -22  76 S5        30.20F
MOOSE JAW        N/A     -6 -11  77 S6          N/A  WCI -18
PRINCE ALBERT  CLEAR     -4  -9  77 SW7       30.09F WCI -18
REGINA         CLEAR    -15 -20  76 SE8       30.17S WCI -32
ROCKGLEN         N/A     -6 -11  77 SW12        N/A  WCI -24
SASKATOON      CLEAR     -9 -13  84 S8        30.11F WCI -26
SWIFT CURRENT  CLEAR     -4 -11  71 W16       30.04R WCI -25
$$



USA.gov is the U.S. government's official web portal to all federal, state and local government web resources and services.